| time (UTC) | temp F | wind direction | speed knots | gust knots | rain 1hr in | rain 24hr in | rain mn in | humidity % | barometer mb |
| 20260506061548 | 57 | 360 | 4.3 | 8.7 | 0.00 | 0.00 | 0.00 | 83 | 1002.6 |
| 20260506044531 | 58 | 360 | 4.3 | 10.4 | 0.00 | 0.00 | 0.00 | 81 | 1003.0 |
| 20260506043028 | 58 | 360 | 4.3 | 9.6 | 0.00 | 0.00 | 0.00 | 80 | 1002.8 |
| 20260506041524 | 59 | 360 | 2.6 | 9.6 | 0.00 | 0.00 | 0.00 | 79 | 1002.8 |
| 20260506040034 | 59 | 360 | 5.2 | 12.2 | 0.00 | 0.00 | 0.00 | 78 | 1002.7 |
| 20260506034521 | 60 | 360 | 7.8 | 12.2 | 0.00 | 0.00 | 0.00 | 78 | 1002.7 |
| 20260506033015 | 61 | 360 | 5.2 | 12.2 | 0.00 | 0.00 | 0.00 | 78 | 1002.4 |
| 20260506031512 | 61 | 360 | 4.3 | 10.4 | 0.00 | 0.00 | 0.00 | 78 | 1001.9 |
| 20260506030012 | 61 | 360 | 5.2 | 11.3 | 0.00 | 0.00 | 0.00 | 78 | 1001.7 |
| 20260506024507 | 62 | 360 | 7.0 | 11.3 | 0.00 | 0.00 | 0.00 | 77 | 1001.3 |
| 20260506023003 | 63 | 360 | 5.2 | 9.6 | 0.00 | 0.00 | 0.00 | 76 | 1000.9 |
| 20260506021615 | 64 | 360 | 3.5 | 7.8 | 0.00 | 0.00 | 0.00 | 76 | 1000.8 |
| 20260506020057 | 64 | 360 | 2.6 | 8.7 | 0.00 | 0.00 | 0.00 | 75 | 1000.5 |
| 20260506014556 | 64 | 360 | 3.5 | 9.6 | 0.00 | 0.00 | 0.00 | 75 | 1000.4 |
| 20260506013054 | 65 | 13 | 4.3 | 9.6 | 0.00 | 0.00 | 0.00 | 74 | 999.6 |
| 20260506011548 | 66 | 360 | 3.5 | 7.0 | 0.00 | 0.00 | 0.00 | 73 | 999.6 |
| 20260506010055 | 66 | 32 | 4.3 | 11.3 | 0.00 | 0.00 | 0.00 | 71 | 998.7 |
| 20260506004548 | 68 | 360 | 5.2 | 11.3 | 0.00 | 0.00 | 0.00 | 71 | 998.5 |
| 20260506003042 | 69 | 360 | 5.2 | 12.2 | 0.00 | 0.00 | 0.00 | 70 | 998.5 |
| 20260506001545 | 69 | 360 | 7.0 | 14.8 | 0.00 | 0.00 | 0.00 | 68 | 998.1 |
| 20260506000039 | 71 | 360 | 5.2 | 9.6 | 0.00 | 0.00 | 0.00 | 68 | 998.4 |
| 20260505234559 | 71 | 360 | 3.5 | 8.7 | 0.00 | 0.00 | 0.00 | 67 | 998.3 |
| 20260505233040 | 72 | 360 | 4.3 | 9.6 | 0.00 | 0.00 | 0.00 | 67 | 998.2 |
| 20260505231537 | 73 | 360 | 7.0 | 13.0 | 0.00 | 0.00 | 0.00 | 65 | 998.1 |
| 20260505230035 | 74 | 13 | 7.0 | 13.0 | 0.00 | 0.00 | 0.00 | 63 | 998.1 |
| 20260505224536 | 76 | 360 | 6.1 | 12.2 | 0.00 | 0.00 | 0.00 | 62 | 997.8 |
| 20260505223035 | 77 | 360 | 4.3 | 11.3 | 0.00 | 0.00 | 0.00 | 62 | 997.6 |
| 20260505221535 | 79 | 360 | 5.2 | 13.0 | 0.00 | 0.00 | 0.00 | 60 | 997.6 |
| 20260505220033 | 79 | 360 | 6.1 | 11.3 | 0.00 | 0.00 | 0.00 | 62 | 997.3 |
| 20260505214558 | 80 | 360 | 7.0 | 13.0 | 0.00 | 0.00 | 0.00 | 58 | 997.4 |
| 20260505213036 | 81 | 360 | 4.3 | 10.4 | 0.00 | 0.00 | 0.00 | 54 | 997.4 |
| 20260505211532 | 81 | 360 | 3.5 | 8.7 | 0.00 | 0.00 | 0.00 | 50 | 997.3 |
| 20260505210031 | 82 | 360 | 4.3 | 9.6 | 0.00 | 0.00 | 0.00 | 48 | 997.3 |
| 20260505204530 | 83 | 360 | 4.3 | 11.3 | 0.00 | 0.00 | 0.00 | 46 | 997.3 |
| 20260505203036 | 88 | 360 | 4.3 | 11.3 | 0.00 | 0.00 | 0.00 | 49 | 997.5 |
| 20260505201530 | 87 | 360 | 3.5 | 10.4 | 0.00 | 0.00 | 0.00 | 48 | 997.3 |
| 20260505200025 | 87 | 360 | 3.5 | 9.6 | 0.00 | 0.00 | 0.00 | 54 | 997.5 |
| 20260505194522 | 86 | 225 | 2.6 | 8.7 | 0.00 | 0.00 | 0.00 | 56 | 997.6 |
| 20260505193020 | 86 | 360 | 5.2 | 12.2 | 0.00 | 0.00 | 0.00 | 56 | 997.6 |
| 20260505191520 | 86 | 360 | 4.3 | 13.0 | 0.00 | 0.00 | 0.00 | 56 | 997.6 |
| 20260505190019 | 85 | 213 | 6.1 | 14.8 | 0.00 | 0.00 | 0.00 | 58 | 997.5 |
| 20260505184513 | 84 | 360 | 5.2 | 13.9 | 0.00 | 0.00 | 0.00 | 62 | 997.4 |
| 20260505183015 | 83 | 169 | 7.0 | 13.0 | 0.00 | 0.00 | 0.00 | 62 | 997.4 |
| 20260505181508 | 82 | 204 | 7.8 | 12.2 | 0.00 | 0.00 | 0.00 | 62 | 997.5 |
| 20260505180006 | 82 | 360 | 9.6 | 17.4 | 0.00 | 0.00 | 0.00 | 63 | 997.5 |
| 20260505174609 | 82 | 360 | 7.8 | 14.8 | 0.00 | 0.00 | 0.00 | 63 | 997.7 |
| 20260505173008 | 82 | 360 | 7.0 | 19.1 | 0.00 | 0.00 | 0.00 | 64 | 997.5 |
| 20260505171504 | 82 | 212 | 9.6 | 18.2 | 0.00 | 0.00 | 0.00 | 63 | 997.4 |
| 20260505170001 | 82 | 360 | 8.7 | 15.6 | 0.00 | 0.00 | 0.00 | 64 | 997.6 |
| 20260505164559 | 81 | 360 | 5.2 | 13.9 | 0.00 | 0.00 | 0.00 | 65 | 997.7 |
| 20260505163055 | 80 | 196 | 5.2 | 14.8 | 0.00 | 0.00 | 0.00 | 70 | 997.5 |
| 20260505161558 | 78 | 183 | 7.8 | 13.0 | 0.00 | 0.00 | 0.00 | 74 | 997.4 |
| 20260505153041 | 74 | 360 | 6.1 | 16.5 | 0.00 | 0.00 | 0.00 | 80 | 997.2 |
| 20260505151537 | 73 | 360 | 7.8 | 13.0 | 0.00 | 0.00 | 0.00 | 81 | 997.5 |
| 20260505124532 | 67 | 360 | 7.0 | 17.4 | 0.00 | 0.00 | 0.00 | 87 | 996.9 |
| 20260505123026 | 67 | 360 | 9.6 | 18.2 | 0.00 | 0.00 | 0.00 | 87 | 996.5 |
| 20260505121523 | 67 | 360 | 8.7 | 14.8 | 0.00 | 0.00 | 0.00 | 87 | 996.3 |
| 20260505120022 | 67 | 360 | 7.8 | 15.6 | 0.00 | 0.00 | 0.00 | 87 | 996.2 |
| 20260505114520 | 67 | 360 | 6.1 | 17.4 | 0.00 | 0.00 | 0.00 | 87 | 996.1 |
| 20260505113020 | 67 | 360 | 9.6 | 16.5 | 0.00 | 0.00 | 0.00 | 86 | 996.1 |
| 20260505111517 | 67 | 360 | 9.6 | 18.2 | 0.00 | 0.00 | 0.00 | 86 | 996.1 |
| 20260505101522 | 68 | 226 | 7.8 | 16.5 | 0.00 | 0.00 | 0.00 | 84 | 995.9 |
| 20260505100018 | 68 | 360 | 7.8 | 18.2 | 0.00 | 0.00 | 0.00 | 84 | 995.9 |
| 20260505094504 | 68 | 360 | 7.8 | 16.5 | 0.00 | 0.00 | 0.00 | 83 | 996.0 |
| 20260505093006 | 69 | 360 | 7.0 | 17.4 | 0.00 | 0.00 | 0.00 | 82 | 996.2 |
| 20260505091701 | 69 | 360 | 7.8 | 18.2 | 0.00 | 0.00 | 0.00 | 81 | 996.0 |
| 20260505090056 | 69 | 182 | 7.8 | 17.4 | 0.00 | 0.00 | 0.00 | 80 | 996.3 |
| 20260505084554 | 70 | 360 | 9.6 | 17.4 | 0.00 | 0.00 | 0.00 | 79 | 996.4 |
| 20260505083052 | 70 | 188 | 9.6 | 16.5 | 0.00 | 0.00 | 0.00 | 79 | 996.5 |
| 20260505081558 | 70 | 360 | 10.4 | 20.0 | 0.00 | 0.00 | 0.00 | 78 | 996.6 |
| 20260505074546 | 71 | 360 | 7.0 | 12.2 | 0.00 | 0.00 | 0.00 | 77 | 996.6 |
| 20260505073046 | 71 | 360 | 7.8 | 13.9 | 0.00 | 0.00 | 0.00 | 76 | 996.8 |
| 20260505071552 | 71 | 360 | 6.1 | 10.4 | 0.00 | 0.00 | 0.00 | 76 | 997.3 |